Location: Miles
(41.4492°N, 81.6087°W)
Time: 01:50:41
(UTC+00:00)

Courier 1B Rocket - Pass Details

Date: 17 September 2024
Orbit: 920 x 1201 km, 28.3° (Epoch: 15 October)

Event Time Altitude Azimuth Distance (km) Brightness Sun altitude
Rises 19:22:06 0° 214° (SSW) 3,576 8.8 41.9°
Reaches altitude 10° 19:25:54 10° 191° (SSW) 2,671 8.2 41.4°
Maximum altitude 19:29:21 15° 158° (SSE) 2,367 7.5 40.9°
Drops below altitude 10° 19:32:54 10° 126° (SE) 2,765 7.4 40.5°
Sets 19:36:57 0° 104° (ESE) 3,781 7.8 39.9°
